ASIASAT 9

Last updated on Mon Jun 22 2026 00:03:06 GMT+0000 (Coordinated Universal Time)

1 42942U 17057A 26172.23586286 .00000000 00000+0 00000+0 0 9997 2 42942 0.0418 51.2413 0002542 27.7813 37.4783 1.00262831 31901
UTC large
Height (km)
Speed (km/s)
/
Latitude / Longitude
Inclination (degrees)
Orbital Period (minutes)
Azimuth
Elevation
Range (km)
Doppler Factor

Next 0 passes for location: London (51.5072 / 0.1276)

No passes found over London.
ASIASAT 9